Time,TemperatureF,DewpointF,PressureIn,WindDirection,WindDirectionDegrees,WindSpeedMPH,WindSpeedGustMPH,Humidity,HourlyPrecipIn,Conditions,Clouds,dailyrainin,SoftwareType,DateUTC
2013-05-04 00:04:00,57.0,52.9,29.89,NNW,338,5.8,5.8,86,0.00,CLR,SKC,0.10,WeatherDisplay:10.37,2013-05-03 22:04:00,
2013-05-04 00:09:00,57.0,52.9,29.89,NW,315,6.0,6.9,86,0.00,CLR,SKC,0.10,WeatherDisplay:10.37,2013-05-03 22:09:00,
2013-05-04 00:14:00,56.8,52.7,29.89,West,270,1.3,1.3,86,0.00,CLR,SKC,0.10,WeatherDisplay:10.37,2013-05-03 22:14:00,
2013-05-04 00:19:00,56.8,52.7,29.89,West,270,1.3,1.3,86,0.00,CLR,SKC,0.10,WeatherDisplay:10.37,2013-05-03 22:19:00,
2013-05-04 00:24:00,56.8,52.7,29.89,North,0,1.8,2.3,86,0.00,CLR,SKC,0.10,WeatherDisplay:10.37,2013-05-03 22:24:00,
2013-05-04 00:29:00,56.8,52.7,29.89,NNW,338,8.9,9.2,86,0.00,CLR,SKC,0.10,WeatherDisplay:10.37,2013-05-03 22:29:00,
2013-05-04 00:34:00,57.0,52.9,29.89,NW,315,3.1,3.5,86,0.00,CLR,SKC,0.10,WeatherDisplay:10.37,2013-05-03 22:34:00,
2013-05-04 00:39:00,57.0,52.6,29.89,NW,315,3.1,3.5,85,0.00,CLR,SKC,0.10,WeatherDisplay:10.37,2013-05-03 22:39:00,
2013-05-04 00:44:00,57.0,52.6,29.89,WNW,292,6.5,6.9,85,0.00,CLR,SKC,0.10,WeatherDisplay:10.37,2013-05-03 22:44:00,
2013-05-04 00:49:00,57.0,52.6,29.89,WNW,292,5.7,6.0,85,0.00,CLR,SKC,0.10,WeatherDisplay:10.37,2013-05-03 22:49:00,
2013-05-04 00:54:00,57.0,52.6,29.89,North,0,0.9,1.2,85,0.00,CLR,SKC,0.10,WeatherDisplay:10.37,2013-05-03 22:54:00,
2013-05-04 00:59:00,57.0,52.6,29.89,NW,315,11.8,11.8,85,0.00,CLR,SKC,0.10,WeatherDisplay:10.37,2013-05-03 22:59:00,
2013-05-04 01:04:00,56.8,52.4,29.89,NW,315,11.3,11.5,85,0.00,CLR,SKC,0.10,WeatherDisplay:10.37,2013-05-03 23:04:00,
2013-05-04 01:09:00,56.8,52.4,29.90,North,0,0.0,0.0,85,0.00,CLR,SKC,0.10,WeatherDisplay:10.37,2013-05-03 23:09:00,
2013-05-04 01:14:00,56.5,52.0,29.90,WNW,292,0.6,1.2,85,0.00,CLR,SKC,0.10,WeatherDisplay:10.37,2013-05-03 23:14:00,
2013-05-04 01:19:00,56.3,51.8,29.90,North,0,2.5,2.5,85,0.00,CLR,SKC,0.10,WeatherDisplay:10.37,2013-05-03 23:19:00,
2013-05-04 01:24:00,56.3,51.8,29.90,NW,315,4.5,4.6,85,0.00,CLR,SKC,0.10,WeatherDisplay:10.37,2013-05-03 23:24:00,
2013-05-04 01:29:00,56.1,51.7,29.90,NW,315,3.6,3.6,85,0.00,CLR,SKC,0.10,WeatherDisplay:10.37,2013-05-03 23:29:00,
2013-05-04 01:34:00,56.1,51.7,29.90,North,0,0.0,0.0,85,0.00,CLR,SKC,0.10,WeatherDisplay:10.37,2013-05-03 23:34:00,
2013-05-04 01:39:00,55.9,51.5,29.90,NNW,338,1.4,3.5,85,0.00,CLR,SKC,0.10,WeatherDisplay:10.37,2013-05-03 23:39:00,
2013-05-04 01:44:00,55.9,51.5,29.90,NW,315,2.0,2.3,85,0.00,CLR,SKC,0.10,WeatherDisplay:10.37,2013-05-03 23:44:00,
2013-05-04 01:49:00,55.8,51.3,29.90,NW,315,1.1,1.2,85,0.00,CLR,SKC,0.10,WeatherDisplay:10.37,2013-05-03 23:49:00,
2013-05-04 01:54:00,55.8,51.6,29.90,NW,315,0.0,0.0,86,0.00,CLR,SKC,0.10,WeatherDisplay:10.37,2013-05-03 23:54:00,
2013-05-04 01:59:00,55.6,51.5,29.90,West,270,0.0,0.0,86,0.00,CLR,SKC,0.10,WeatherDisplay:10.37,2013-05-03 23:59:00,
2013-05-04 02:04:00,55.0,50.9,29.90,West,270,0.1,0.0,86,0.00,CLR,SKC,0.10,WeatherDisplay:10.37,2013-05-04 00:04:00,
2013-05-04 02:09:00,55.0,50.9,29.90,WNW,292,0.0,0.0,86,0.00,CLR,SKC,0.10,WeatherDisplay:10.37,2013-05-04 00:09:00,
2013-05-04 02:14:00,55.2,51.4,29.89,West,270,4.2,4.6,87,0.00,CLR,SKC,0.10,WeatherDisplay:10.37,2013-05-04 00:14:00,
2013-05-04 02:19:00,55.2,51.4,29.89,WNW,292,1.3,1.3,87,0.00,CLR,SKC,0.10,WeatherDisplay:10.37,2013-05-04 00:19:00,
2013-05-04 02:24:00,55.2,51.4,29.89,WNW,292,1.3,1.3,87,0.00,CLR,SKC,0.10,WeatherDisplay:10.37,2013-05-04 00:24:00,
2013-05-04 02:29:00,55.6,51.5,29.89,WNW,292,0.0,3.5,86,0.00,CLR,SKC,0.10,WeatherDisplay:10.37,2013-05-04 00:29:00,
2013-05-04 02:34:00,55.6,51.5,29.88,West,270,2.7,4.6,86,0.00,CLR,SKC,0.10,WeatherDisplay:10.37,2013-05-04 00:34:00,
2013-05-04 02:39:00,55.4,51.3,29.88,West,270,2.5,2.5,86,0.00,CLR,SKC,0.10,WeatherDisplay:10.37,2013-05-04 00:39:00,
2013-05-04 02:44:00,55.2,51.1,29.86,NNE,22,0.0,0.0,86,0.00,CLR,SKC,0.10,WeatherDisplay:10.37,2013-05-04 00:44:00,
2013-05-04 02:49:00,54.7,50.9,29.86,NW,315,0.0,0.0,87,0.00,CLR,SKC,0.10,WeatherDisplay:10.37,2013-05-04 00:49:00,
2013-05-04 02:54:00,54.7,50.9,29.87,NW,315,1.1,1.2,87,0.00,CLR,SKC,0.10,WeatherDisplay:10.37,2013-05-04 00:54:00,
2013-05-04 02:59:00,54.1,50.4,29.87,West,270,0.0,0.0,87,0.00,CLR,SKC,0.10,WeatherDisplay:10.37,2013-05-04 00:59:00,
2013-05-04 03:04:00,54.1,50.4,29.87,West,270,0.0,0.0,87,0.00,CLR,SKC,0.10,WeatherDisplay:10.37,2013-05-04 01:04:00,
2013-05-04 03:09:00,53.8,50.0,29.86,ENE,68,0.0,0.0,87,0.00,CLR,SKC,0.10,WeatherDisplay:10.37,2013-05-04 01:09:00,
2013-05-04 03:14:00,53.6,49.8,29.87,WNW,292,0.0,0.0,87,0.00,CLR,SKC,0.10,WeatherDisplay:10.37,2013-05-04 01:14:00,
2013-05-04 03:19:00,53.1,49.6,29.87,WNW,292,0.0,0.0,88,0.00,CLR,SKC,0.10,WeatherDisplay:10.37,2013-05-04 01:19:00,
2013-05-04 03:24:00,52.9,49.4,29.87,NE,45,0.0,0.0,88,0.00,CLR,SKC,0.10,WeatherDisplay:10.37,2013-05-04 01:24:00,
2013-05-04 03:29:00,52.9,49.7,29.87,South,180,0.0,0.0,89,0.00,CLR,SKC,0.10,WeatherDisplay:10.37,2013-05-04 01:29:00,
2013-05-04 03:34:00,52.7,49.5,29.88,West,270,0.0,0.0,89,0.00,CLR,SKC,0.10,WeatherDisplay:10.37,2013-05-04 01:34:00,
2013-05-04 03:39:00,52.7,49.5,29.88,WNW,292,3.8,3.8,89,0.00,CLR,SKC,0.10,WeatherDisplay:10.37,2013-05-04 01:39:00,
2013-05-04 03:44:00,53.4,50.3,29.89,WNW,292,1.3,3.6,89,0.00,CLR,SKC,0.10,WeatherDisplay:10.37,2013-05-04 01:44:00,
2013-05-04 03:49:00,53.4,50.3,29.89,WNW,292,0.0,0.0,89,0.00,CLR,SKC,0.10,WeatherDisplay:10.37,2013-05-04 01:49:00,
2013-05-04 03:54:00,53.8,50.6,29.89,South,180,0.0,0.0,89,0.00,CLR,SKC,0.10,WeatherDisplay:10.37,2013-05-04 01:54:00,
2013-05-04 03:59:00,53.4,50.3,29.89,WNW,292,0.9,1.2,89,0.00,CLR,SKC,0.10,WeatherDisplay:10.37,2013-05-04 01:59:00,
2013-05-04 04:04:00,53.4,50.3,29.90,WNW,292,8.3,8.3,89,0.00,CLR,SKC,0.10,WeatherDisplay:10.37,2013-05-04 02:04:00,
2013-05-04 04:09:00,53.8,50.6,29.90,NW,315,3.6,3.6,89,0.00,CLR,SKC,0.10,WeatherDisplay:10.37,2013-05-04 02:09:00,
2013-05-04 04:14:00,54.1,51.3,29.90,NW,315,4.4,7.2,90,0.00,CLR,SKC,0.10,WeatherDisplay:10.37,2013-05-04 02:14:00,
2013-05-04 04:19:00,54.3,51.1,29.91,NW,315,3.8,3.8,89,0.00,CLR,SKC,0.10,WeatherDisplay:10.37,2013-05-04 02:19:00,
2013-05-04 04:24:00,54.3,51.1,29.91,WNW,292,5.8,5.8,89,0.00,CLR,SKC,0.10,WeatherDisplay:10.37,2013-05-04 02:24:00,
2013-05-04 04:29:00,54.5,51.3,29.91,WNW,292,6.3,6.3,89,0.00,CLR,SKC,0.10,WeatherDisplay:10.37,2013-05-04 02:29:00,
2013-05-04 04:34:00,54.7,51.5,29.90,WNW,292,6.7,6.9,89,0.00,CLR,SKC,0.10,WeatherDisplay:10.37,2013-05-04 02:34:00,
2013-05-04 04:39:00,54.7,51.2,29.90,WNW,292,2.5,2.5,88,0.00,CLR,SKC,0.10,WeatherDisplay:10.37,2013-05-04 02:39:00,
2013-05-04 04:44:00,54.7,51.2,29.90,WNW,292,5.9,10.7,88,0.00,CLR,SKC,0.10,WeatherDisplay:10.37,2013-05-04 02:44:00,
2013-05-04 04:49:00,54.9,51.4,29.91,NW,315,3.9,6.0,88,0.00,CLR,SKC,0.10,WeatherDisplay:10.37,2013-05-04 02:49:00,
2013-05-04 04:54:00,54.9,51.4,29.91,WNW,292,4.0,4.0,88,0.00,CLR,SKC,0.10,WeatherDisplay:10.37,2013-05-04 02:54:00,
2013-05-04 04:59:00,54.9,51.4,29.91,NW,315,0.9,1.2,88,0.00,CLR,SKC,0.10,WeatherDisplay:10.37,2013-05-04 02:59:00,
2013-05-04 05:04:00,55.0,51.5,29.92,NNW,338,1.1,1.2,88,0.00,CLR,SKC,0.10,WeatherDisplay:10.37,2013-05-04 03:04:00,
2013-05-04 05:09:00,55.0,51.5,29.92,NNW,338,2.2,2.3,88,0.00,CLR,SKC,0.10,WeatherDisplay:10.37,2013-05-04 03:09:00,
2013-05-04 05:14:00,55.0,51.5,29.92,WNW,292,1.6,1.6,88,0.00,CLR,SKC,0.10,WeatherDisplay:10.37,2013-05-04 03:14:00,
2013-05-04 05:19:00,55.2,51.7,29.92,WNW,292,2.3,3.5,88,0.00,CLR,SKC,0.10,WeatherDisplay:10.37,2013-05-04 03:19:00,
2013-05-04 05:24:00,55.0,51.5,29.92,NNW,338,0.7,1.2,88,0.00,CLR,SKC,0.10,WeatherDisplay:10.37,2013-05-04 03:24:00,
2013-05-04 05:29:00,55.2,51.7,29.92,NW,315,2.2,2.3,88,0.00,CLR,SKC,0.10,WeatherDisplay:10.37,2013-05-04 03:29:00,
2013-05-04 05:34:00,55.0,51.5,29.92,West,270,1.9,3.5,88,0.00,CLR,SKC,0.10,WeatherDisplay:10.37,2013-05-04 03:34:00,
2013-05-04 05:39:00,55.2,51.7,29.92,West,270,1.6,1.6,88,0.00,CLR,SKC,0.10,WeatherDisplay:10.37,2013-05-04 03:39:00,
2013-05-04 05:44:00,55.0,51.2,29.93,North,0,1.1,1.2,87,0.00,CLR,SKC,0.10,WeatherDisplay:10.37,2013-05-04 03:44:00,
2013-05-04 05:49:00,55.0,51.2,29.92,North,0,0.0,0.0,87,0.00,CLR,SKC,0.10,WeatherDisplay:10.37,2013-05-04 03:49:00,
2013-05-04 05:54:00,55.0,51.2,29.93,North,0,0.0,2.3,87,0.00,CLR,SKC,0.10,WeatherDisplay:10.37,2013-05-04 03:54:00,
2013-05-04 05:59:00,54.9,51.1,29.93,WNW,292,3.4,3.5,87,0.00,CLR,SKC,0.10,WeatherDisplay:10.37,2013-05-04 03:59:00,
2013-05-04 06:01:00,54.9,51.1,29.93,WNW,298,3.0,3.0,87,0.00,CLR,SKC,0.10,WeatherDisplay:10.37,2013-05-04 04:01:00,
2013-05-04 06:02:00,54.9,51.1,29.93,WNW,292,3.1,3.5,87,0.00,CLR,SKC,0.10,WeatherDisplay:10.37,2013-05-04 04:02:00,
2013-05-04 06:07:00,55.0,51.2,29.93,WNW,292,3.7,4.6,87,0.00,CLR,SKC,0.10,WeatherDisplay:10.37,2013-05-04 04:07:00,
2013-05-04 06:12:00,55.0,51.2,29.93,NNW,338,4.2,4.6,87,0.00,CLR,SKC,0.10,WeatherDisplay:10.37,2013-05-04 04:12:00,
2013-05-04 06:17:00,55.0,51.2,29.93,WNW,292,3.8,3.8,87,0.00,FEW,SKC,0.10,WeatherDisplay:10.37,2013-05-04 04:17:00,
2013-05-04 06:22:00,54.7,50.9,29.93,WNW,292,5.0,9.2,87,0.00,FEW,SKC,0.10,WeatherDisplay:10.37,2013-05-04 04:22:00,
2013-05-04 06:27:00,54.7,50.9,29.94,NNE,22,3.6,3.6,87,0.00,FEW,SKC,0.10,WeatherDisplay:10.37,2013-05-04 04:27:00,
2013-05-04 06:32:00,54.7,50.9,29.94,NW,315,1.8,2.3,87,0.00,FEW,SKC,0.10,WeatherDisplay:10.37,2013-05-04 04:32:00,
2013-05-04 06:37:00,54.9,51.1,29.95,NW,315,1.7,4.6,87,0.00,FEW,SKC,0.10,WeatherDisplay:10.37,2013-05-04 04:37:00,
2013-05-04 06:42:00,54.9,51.1,29.95,NNW,338,1.1,1.2,87,0.00,FEW,SKC,0.10,WeatherDisplay:10.37,2013-05-04 04:42:00,
2013-05-04 06:47:00,55.0,51.2,29.95,ENE,68,4.7,6.9,87,0.00,FEW,SKC,0.10,WeatherDisplay:10.37,2013-05-04 04:47:00,
2013-05-04 06:52:00,55.0,51.2,29.95,NW,315,2.2,2.5,87,0.00,FEW,SKC,0.10,WeatherDisplay:10.37,2013-05-04 04:52:00,
2013-05-04 06:57:00,55.2,51.4,29.95,NW,315,1.8,2.3,87,0.00,FEW,SKC,0.10,WeatherDisplay:10.37,2013-05-04 04:57:00,
2013-05-04 07:02:00,55.4,51.6,29.95,NNW,338,0.0,0.0,87,0.00,FEW,SKC,0.10,WeatherDisplay:10.37,2013-05-04 05:02:00,
2013-05-04 07:07:00,55.8,51.6,29.95,NNE,22,0.0,0.0,86,0.00,FEW,SKC,0.10,WeatherDisplay:10.37,2013-05-04 05:07:00,
2013-05-04 07:12:00,55.9,51.8,29.95,WNW,292,6.9,6.9,86,0.00,FEW,SKC,0.10,WeatherDisplay:10.37,2013-05-04 05:12:00,
2013-05-04 07:17:00,55.9,51.8,29.95,West,270,1.6,1.6,86,0.00,SCT,SKC,0.10,WeatherDisplay:10.37,2013-05-04 05:17:00,
2013-05-04 07:22:00,56.5,52.0,29.95,NW,315,0.0,1.2,85,0.00,SCT,SKC,0.10,WeatherDisplay:10.37,2013-05-04 05:22:00,
2013-05-04 07:27:00,56.5,52.0,29.95,WNW,292,0.0,0.0,85,0.00,SCT,SKC,0.10,WeatherDisplay:10.37,2013-05-04 05:27:00,
2013-05-04 07:32:00,57.0,52.2,29.96,NNW,338,6.3,9.2,84,0.00,SCT,SKC,0.10,WeatherDisplay:10.37,2013-05-04 05:32:00,
2013-05-04 07:37:00,57.0,52.2,29.96,SW,225,2.6,5.8,84,0.00,SCT,SKC,0.10,WeatherDisplay:10.37,2013-05-04 05:37:00,
2013-05-04 07:42:00,57.4,52.3,29.96,WNW,292,2.1,3.5,83,0.00,SCT,SKC,0.10,WeatherDisplay:10.37,2013-05-04 05:42:00,
2013-05-04 07:47:00,57.6,52.4,29.96,WNW,292,4.0,4.0,83,0.00,SCT,SKC,0.10,WeatherDisplay:10.37,2013-05-04 05:47:00,
2013-05-04 07:52:00,57.7,52.6,29.97,North,0,1.3,1.3,83,0.00,SCT,SKC,0.10,WeatherDisplay:10.37,2013-05-04 05:52:00,
2013-05-04 07:57:00,57.9,52.5,29.97,WNW,292,2.6,4.6,82,0.00,SCT,SKC,0.10,WeatherDisplay:10.37,2013-05-04 05:57:00,
2013-05-04 08:02:00,57.9,52.1,29.96,NW,315,0.6,8.1,81,0.00,RA,SKC,0.00,WeatherDisplay:10.37,2013-05-04 06:02:00,
2013-05-04 08:07:00,57.9,52.1,29.96,NW,315,0.0,0.0,81,0.00,RA,SKC,0.00,WeatherDisplay:10.37,2013-05-04 06:07:00,
2013-05-04 08:12:00,58.3,52.1,29.96,NW,315,1.1,8.1,80,0.00,SCT,SKC,0.00,WeatherDisplay:10.37,2013-05-04 06:12:00,
2013-05-04 08:17:00,58.5,52.3,29.97,West,270,2.1,3.5,80,0.00,SCT,SKC,0.00,WeatherDisplay:10.37,2013-05-04 06:17:00,
2013-05-04 08:22:00,58.8,52.7,29.97,NNW,338,1.1,1.2,80,0.00,SCT,SKC,0.00,WeatherDisplay:10.37,2013-05-04 06:22:00,
2013-05-04 08:27:00,59.0,52.8,29.98,NE,45,2.6,3.5,80,0.00,SCT,SKC,0.00,WeatherDisplay:10.37,2013-05-04 06:27:00,
2013-05-04 08:32:00,59.2,53.0,29.98,NNE,22,3.1,3.5,80,0.00,SCT,SKC,0.00,WeatherDisplay:10.37,2013-05-04 06:32:00,
2013-05-04 08:37:00,59.9,53.7,29.98,NE,45,1.4,1.4,80,0.00,SCT,SKC,0.00,WeatherDisplay:10.37,2013-05-04 06:37:00,
2013-05-04 08:42:00,60.1,53.5,29.98,NNE,22,1.1,3.5,79,0.00,SCT,SKC,0.00,WeatherDisplay:10.37,2013-05-04 06:42:00,
2013-05-04 08:47:00,60.3,53.7,29.98,ENE,68,2.2,2.3,79,0.00,SCT,SKC,0.00,WeatherDisplay:10.37,2013-05-04 06:47:00,
2013-05-04 08:52:00,61.0,54.4,29.98,WSW,248,0.3,2.3,79,0.00,SCT,SKC,0.00,WeatherDisplay:10.37,2013-05-04 06:52:00,
2013-05-04 08:57:00,60.6,53.7,29.99,NE,45,8.3,8.3,78,0.00,SCT,SKC,0.00,WeatherDisplay:10.37,2013-05-04 06:57:00,
2013-05-04 09:02:00,59.7,52.8,29.99,WNW,292,0.0,0.0,78,0.00,SCT,SKC,0.00,WeatherDisplay:10.37,2013-05-04 07:02:00,
2013-05-04 09:07:00,59.7,52.8,29.99,NNE,22,0.0,0.0,78,0.00,SCT,SKC,0.00,WeatherDisplay:10.37,2013-05-04 07:07:00,
2013-05-04 09:12:00,59.5,53.4,29.99,ENE,68,0.6,1.2,80,0.00,SCT,SKC,0.00,WeatherDisplay:10.37,2013-05-04 07:12:00,
2013-05-04 09:17:00,59.5,53.4,29.99,NW,315,1.2,5.6,80,0.00,SCT,SKC,0.00,WeatherDisplay:10.37,2013-05-04 07:17:00,
2013-05-04 09:22:00,59.9,53.4,29.99,NW,315,1.5,3.5,79,0.00,SCT,SKC,0.00,WeatherDisplay:10.37,2013-05-04 07:22:00,
2013-05-04 09:27:00,60.1,53.5,29.99,NW,315,3.6,3.6,79,0.00,SCT,SKC,0.00,WeatherDisplay:10.37,2013-05-04 07:27:00,
2013-05-04 09:32:00,60.1,53.2,29.99,North,0,3.6,5.8,78,0.00,SCT,SKC,0.00,WeatherDisplay:10.37,2013-05-04 07:32:00,
2013-05-04 09:37:00,60.1,53.2,29.99,NNW,338,2.2,2.3,78,0.00,SCT,SKC,0.00,WeatherDisplay:10.37,2013-05-04 07:37:00,
2013-05-04 09:42:00,60.6,53.7,29.99,North,0,0.9,1.3,78,0.00,SCT,SKC,0.00,WeatherDisplay:10.37,2013-05-04 07:42:00,
2013-05-04 09:47:00,61.7,54.4,29.99,WNW,292,3.2,3.5,77,0.00,FEW,SKC,0.00,WeatherDisplay:10.37,2013-05-04 07:47:00,
2013-05-04 09:52:00,62.4,55.1,29.99,NNW,338,1.7,6.9,77,0.00,FEW,SKC,0.00,WeatherDisplay:10.37,2013-05-04 07:52:00,
2013-05-04 09:57:00,62.4,54.4,29.99,East,90,3.0,3.5,75,0.00,FEW,SKC,0.00,WeatherDisplay:10.37,2013-05-04 07:57:00,
2013-05-04 10:02:00,62.8,54.7,29.99,NNW,338,2.9,3.5,75,0.00,FEW,SKC,0.00,WeatherDisplay:10.37,2013-05-04 08:02:00,
2013-05-04 10:07:00,62.6,54.2,29.99,North,0,3.1,3.5,74,0.00,FEW,SKC,0.00,WeatherDisplay:10.37,2013-05-04 08:07:00,
2013-05-04 10:12:00,63.0,54.5,29.99,North,0,4.5,4.6,74,0.00,FEW,SKC,0.00,WeatherDisplay:10.37,2013-05-04 08:12:00,
2013-05-04 10:17:00,62.8,54.0,29.99,West,270,5.4,5.8,73,0.00,FEW,SKC,0.00,WeatherDisplay:10.37,2013-05-04 08:17:00,
2013-05-04 10:22:00,63.1,54.7,29.99,West,270,1.8,3.5,74,0.00,FEW,SKC,0.00,WeatherDisplay:10.37,2013-05-04 08:22:00,
2013-05-04 10:27:00,63.7,55.2,29.99,NNE,22,2.9,3.5,74,0.00,FEW,SKC,0.00,WeatherDisplay:10.37,2013-05-04 08:27:00,
2013-05-04 10:32:00,64.2,55.0,29.99,West,270,4.6,5.8,72,0.00,FEW,SKC,0.00,WeatherDisplay:10.37,2013-05-04 08:32:00,
2013-05-04 10:37:00,64.2,55.0,29.99,NNW,338,2.7,6.9,72,0.00,FEW,SKC,0.00,WeatherDisplay:10.37,2013-05-04 08:37:00,
2013-05-04 10:42:00,64.6,55.3,29.99,WNW,292,1.8,2.3,72,0.00,FEW,SKC,0.00,WeatherDisplay:10.37,2013-05-04 08:42:00,
2013-05-04 10:47:00,64.9,55.3,29.99,WNW,292,2.9,3.5,71,0.00,FEW,SKC,0.00,WeatherDisplay:10.37,2013-05-04 08:47:00,
2013-05-04 10:52:00,65.1,55.5,29.99,North,0,1.3,1.3,71,0.00,FEW,SKC,0.00,WeatherDisplay:10.37,2013-05-04 08:52:00,
2013-05-04 10:57:00,65.5,55.8,29.99,North,0,1.8,2.3,71,0.00,FEW,SKC,0.00,WeatherDisplay:10.37,2013-05-04 08:57:00,
2013-05-04 11:02:00,65.7,55.6,29.99,WNW,292,2.6,3.5,70,0.00,FEW,SKC,0.00,WeatherDisplay:10.37,2013-05-04 09:02:00,
2013-05-04 11:07:00,65.1,55.1,29.99,NE,45,0.9,2.3,70,0.00,FEW,SKC,0.00,WeatherDisplay:10.37,2013-05-04 09:07:00,
2013-05-04 11:12:00,64.8,54.7,30.00,NW,315,1.7,3.5,70,0.00,FEW,SKC,0.00,WeatherDisplay:10.37,2013-05-04 09:12:00,
2013-05-04 11:17:00,64.6,55.3,30.00,NNE,22,0.7,6.9,72,0.00,FEW,SKC,0.00,WeatherDisplay:10.37,2013-05-04 09:17:00,
2013-05-04 11:22:00,64.9,55.3,30.00,NE,45,3.2,6.9,71,0.00,FEW,SKC,0.00,WeatherDisplay:10.37,2013-05-04 09:22:00,
2013-05-04 11:27:00,64.8,55.1,30.00,WNW,292,1.1,1.2,71,0.00,FEW,SKC,0.00,WeatherDisplay:10.37,2013-05-04 09:27:00,
2013-05-04 11:32:00,65.1,55.9,29.99,NW,315,4.9,12.7,72,0.00,FEW,SKC,0.00,WeatherDisplay:10.37,2013-05-04 09:32:00,
2013-05-04 11:37:00,65.3,55.7,29.99,NNW,338,0.0,0.0,71,0.00,FEW,SKC,0.00,WeatherDisplay:10.37,2013-05-04 09:37:00,
2013-05-04 11:42:00,66.0,56.3,29.99,North,0,3.7,9.2,71,0.00,FEW,SKC,0.00,WeatherDisplay:10.37,2013-05-04 09:42:00,
2013-05-04 11:47:00,66.0,55.6,29.99,NE,45,2.4,10.4,69,0.00,FEW,SKC,0.00,WeatherDisplay:10.37,2013-05-04 09:47:00,
2013-05-04 11:52:00,66.4,56.3,29.99,NNE,22,3.8,4.6,70,0.00,FEW,SKC,0.00,WeatherDisplay:10.37,2013-05-04 09:52:00,
2013-05-04 11:57:00,66.4,56.3,29.99,East,90,1.5,3.5,70,0.00,FEW,SKC,0.00,WeatherDisplay:10.37,2013-05-04 09:57:00,
2013-05-04 12:02:00,66.4,55.9,29.99,NE,45,7.6,8.1,69,0.00,FEW,SKC,0.00,WeatherDisplay:10.37,2013-05-04 10:02:00,
2013-05-04 12:07:00,66.6,55.7,30.00,West,270,0.0,0.0,68,0.00,FEW,SKC,0.00,WeatherDisplay:10.37,2013-05-04 10:07:00,
2013-05-04 12:12:00,66.7,56.2,30.00,East,90,0.0,0.0,69,0.00,FEW,SKC,0.00,WeatherDisplay:10.37,2013-05-04 10:12:00,
2013-05-04 12:17:00,66.9,56.4,30.00,NW,315,1.4,2.5,69,0.00,FEW,SKC,0.00,WeatherDisplay:10.37,2013-05-04 10:17:00,
2013-05-04 12:22:00,67.6,57.1,30.00,NNE,22,0.4,2.9,69,0.00,FEW,SKC,0.00,WeatherDisplay:10.37,2013-05-04 10:22:00,
2013-05-04 12:27:00,67.3,55.9,30.00,NW,315,4.5,4.6,67,0.00,FEW,SKC,0.00,WeatherDisplay:10.37,2013-05-04 10:27:00,
2013-05-04 12:32:00,67.3,56.4,30.00,NE,45,3.6,3.6,68,0.00,FEW,SKC,0.00,WeatherDisplay:10.37,2013-05-04 10:32:00,
2013-05-04 12:37:00,67.3,56.4,30.00,NNW,338,0.0,0.0,68,0.00,FEW,SKC,0.00,WeatherDisplay:10.37,2013-05-04 10:37:00,
2013-05-04 12:42:00,68.5,57.1,30.00,ENE,68,2.0,3.5,67,0.00,FEW,SKC,0.00,WeatherDisplay:10.37,2013-05-04 10:42:00,
2013-05-04 12:47:00,68.4,56.1,30.00,NNE,22,3.6,3.6,65,0.00,SCT,SKC,0.00,WeatherDisplay:10.37,2013-05-04 10:47:00,
2013-05-04 12:52:00,68.2,56.4,30.00,NNE,22,3.8,4.0,66,0.00,SCT,SKC,0.00,WeatherDisplay:10.37,2013-05-04 10:52:00,
2013-05-04 12:57:00,67.8,55.6,30.00,NNW,338,5.3,9.2,65,0.00,SCT,SKC,0.00,WeatherDisplay:10.37,2013-05-04 10:57:00,
2013-05-04 13:02:00,68.0,56.2,30.00,NNE,22,1.6,2.3,66,0.00,SCT,SKC,0.00,WeatherDisplay:10.37,2013-05-04 11:02:00,
2013-05-04 13:07:00,68.4,56.1,30.00,NW,315,0.0,0.0,65,0.00,SCT,SKC,0.00,WeatherDisplay:10.37,2013-05-04 11:07:00,
2013-05-04 13:12:00,68.2,56.0,30.00,NW,315,5.1,11.5,65,0.00,SCT,SKC,0.00,WeatherDisplay:10.37,2013-05-04 11:12:00,
2013-05-04 13:17:00,68.0,56.2,30.00,NW,315,8.7,9.2,66,0.00,FEW,SKC,0.00,WeatherDisplay:10.37,2013-05-04 11:17:00,
2013-05-04 13:22:00,68.2,56.0,30.00,West,270,3.2,3.5,65,0.00,FEW,SKC,0.00,WeatherDisplay:10.37,2013-05-04 11:22:00,
2013-05-04 13:27:00,68.2,56.4,30.00,West,270,2.0,2.3,66,0.00,FEW,SKC,0.00,WeatherDisplay:10.37,2013-05-04 11:27:00,
2013-05-04 13:32:00,68.5,56.3,30.00,North,0,1.6,2.3,65,0.00,FEW,SKC,0.00,WeatherDisplay:10.37,2013-05-04 11:32:00,
2013-05-04 13:37:00,68.5,56.7,30.00,North,0,0.0,0.0,66,0.00,FEW,SKC,0.00,WeatherDisplay:10.37,2013-05-04 11:37:00,
2013-05-04 13:42:00,69.1,57.2,30.00,NW,315,2.2,2.3,66,0.00,FEW,SKC,0.00,WeatherDisplay:10.37,2013-05-04 11:42:00,
2013-05-04 13:47:00,69.1,56.8,30.00,NE,45,4.0,9.2,65,0.00,SCT,SKC,0.00,WeatherDisplay:10.37,2013-05-04 11:47:00,
2013-05-04 13:52:00,68.7,56.5,30.00,NNW,338,2.8,3.5,65,0.00,SCT,SKC,0.00,WeatherDisplay:10.37,2013-05-04 11:52:00,
2013-05-04 13:57:00,69.1,56.0,29.99,WNW,292,4.6,10.3,63,0.00,SCT,SKC,0.00,WeatherDisplay:10.37,2013-05-04 11:57:00,
2013-05-04 14:02:00,68.7,55.6,30.00,WSW,248,3.6,15.0,63,0.00,SCT,SKC,0.00,WeatherDisplay:10.37,2013-05-04 12:02:00,
2013-05-04 14:07:00,68.4,55.7,29.99,WNW,292,3.4,9.2,64,0.00,SCT,SKC,0.00,WeatherDisplay:10.37,2013-05-04 12:07:00,
2013-05-04 14:12:00,68.4,55.7,29.99,NW,315,10.5,10.5,64,0.00,SCT,SKC,0.00,WeatherDisplay:10.37,2013-05-04 12:12:00,
2013-05-04 14:18:00,67.8,55.2,29.99,NW,323,7.0,12.0,64,0.00,SCT,SKC,0.00,WeatherDisplay:10.37,2013-05-04 12:18:00,
2013-05-04 14:23:00,67.8,55.2,30.00,WNW,298,10.0,12.0,64,0.00,SCT,SKC,0.00,WeatherDisplay:10.37,2013-05-04 12:23:00,
2013-05-04 14:28:00,67.8,55.2,30.00,NW,306,7.0,7.0,64,0.00,SCT,SKC,0.00,WeatherDisplay:10.37,2013-05-04 12:28:00,
2013-05-04 14:33:00,68.7,56.5,29.99,NW,315,4.6,5.8,65,0.00,SCT,SKC,0.00,WeatherDisplay:10.37,2013-05-04 12:33:00,
2013-05-04 14:38:00,68.5,55.9,29.99,WNW,292,1.8,4.7,64,0.00,SCT,SKC,0.00,WeatherDisplay:10.37,2013-05-04 12:38:00,
2013-05-04 14:43:00,68.5,55.9,29.99,WNW,292,9.1,9.2,64,0.00,SCT,SKC,0.00,WeatherDisplay:10.37,2013-05-04 12:43:00,
2013-05-04 14:48:00,68.5,55.4,29.99,WNW,292,2.0,4.6,63,0.00,CLR,SKC,0.00,WeatherDisplay:10.37,2013-05-04 12:48:00,
2013-05-04 14:53:00,69.1,56.8,29.99,NE,45,2.5,2.5,65,0.00,CLR,SKC,0.00,WeatherDisplay:10.37,2013-05-04 12:53:00,
2013-05-04 14:58:00,69.6,56.5,29.99,WNW,292,4.2,13.8,63,0.00,CLR,SKC,0.00,WeatherDisplay:10.37,2013-05-04 12:58:00,
2013-05-04 15:03:00,69.6,56.9,29.99,NW,315,3.1,3.5,64,0.00,CLR,SKC,0.00,WeatherDisplay:10.37,2013-05-04 13:03:00,
2013-05-04 15:04:00,69.6,56.9,29.99,NW,315,4.5,4.6,64,0.00,CLR,SKC,0.00,WeatherDisplay:10.37,2013-05-04 13:04:00,
2013-05-04 15:09:00,69.8,56.6,29.99,WNW,292,8.5,8.5,63,0.00,CLR,SKC,0.00,WeatherDisplay:10.37,2013-05-04 13:09:00,
2013-05-04 15:14:00,69.4,55.9,29.99,WNW,292,7.2,10.4,62,0.00,CLR,SKC,0.00,WeatherDisplay:10.37,2013-05-04 13:14:00,
2013-05-04 15:19:00,69.4,56.3,29.99,NW,315,14.5,15.0,63,0.00,CLR,SKC,0.00,WeatherDisplay:10.37,2013-05-04 13:19:00,
2013-05-04 15:24:00,69.4,56.3,29.99,WNW,292,3.5,3.5,63,0.00,CLR,SKC,0.00,WeatherDisplay:10.37,2013-05-04 13:24:00,
2013-05-04 15:29:00,70.2,57.0,29.99,West,270,3.7,8.1,63,0.00,CLR,SKC,0.00,WeatherDisplay:10.37,2013-05-04 13:29:00,
2013-05-04 15:34:00,70.0,56.4,29.99,NW,315,5.8,5.8,62,0.00,CLR,SKC,0.00,WeatherDisplay:10.37,2013-05-04 13:34:00,
2013-05-04 15:39:00,69.6,56.0,29.98,NNE,22,4.0,4.0,62,0.00,CLR,SKC,0.00,WeatherDisplay:10.37,2013-05-04 13:39:00,
2013-05-04 15:44:00,70.0,56.8,29.98,WNW,292,10.2,10.4,63,0.00,CLR,SKC,0.00,WeatherDisplay:10.37,2013-05-04 13:44:00,
2013-05-04 15:49:00,70.0,56.4,29.98,NNW,338,2.9,3.5,62,0.00,CLR,SKC,0.00,WeatherDisplay:10.37,2013-05-04 13:49:00,
2013-05-04 15:54:00,69.6,56.5,29.98,NNW,338,2.9,3.5,63,0.00,CLR,SKC,0.00,WeatherDisplay:10.37,2013-05-04 13:54:00,
2013-05-04 15:59:00,69.6,56.5,29.97,WNW,292,2.9,3.5,63,0.00,CLR,SKC,0.00,WeatherDisplay:10.37,2013-05-04 13:59:00,
2013-05-04 16:04:00,69.4,55.9,29.97,NW,315,2.8,6.3,62,0.00,CLR,SKC,0.00,WeatherDisplay:10.37,2013-05-04 14:04:00,
2013-05-04 16:09:00,69.4,56.3,29.98,West,270,6.7,9.2,63,0.00,CLR,SKC,0.00,WeatherDisplay:10.37,2013-05-04 14:09:00,
2013-05-04 16:14:00,69.4,56.3,29.97,NW,315,1.6,1.6,63,0.00,CLR,SKC,0.00,WeatherDisplay:10.37,2013-05-04 14:14:00,
2013-05-04 16:19:00,69.8,56.6,29.98,WNW,292,6.2,6.9,63,0.00,CLR,SKC,0.00,WeatherDisplay:10.37,2013-05-04 14:19:00,
2013-05-04 16:24:00,70.2,57.4,29.98,NNE,22,0.3,3.5,64,0.00,CLR,SKC,0.00,WeatherDisplay:10.37,2013-05-04 14:24:00,
2013-05-04 16:29:00,70.3,57.6,29.98,NW,315,4.5,4.7,64,0.00,CLR,SKC,0.00,WeatherDisplay:10.37,2013-05-04 14:29:00,
2013-05-04 16:34:00,70.2,57.0,29.98,NW,315,4.4,4.6,63,0.00,CLR,SKC,0.00,WeatherDisplay:10.37,2013-05-04 14:34:00,
2013-05-04 16:40:00,70.0,56.8,29.98,NW,315,4.9,4.9,63,0.00,CLR,SKC,0.00,WeatherDisplay:10.37,2013-05-04 14:40:00,
2013-05-04 16:45:00,69.6,56.0,29.98,WNW,292,2.1,2.3,62,0.00,CLR,SKC,0.00,WeatherDisplay:10.37,2013-05-04 14:45:00,
2013-05-04 16:50:00,69.6,56.5,29.98,NW,315,4.0,4.0,63,0.00,CLR,SKC,0.00,WeatherDisplay:10.37,2013-05-04 14:50:00,
2013-05-04 16:55:00,69.6,56.5,29.98,SW,225,2.7,3.4,63,0.00,CLR,SKC,0.00,WeatherDisplay:10.37,2013-05-04 14:55:00,
2013-05-04 17:00:00,70.0,57.2,29.98,North,0,3.3,4.6,64,0.00,CLR,SKC,0.00,WeatherDisplay:10.37,2013-05-04 15:00:00,
2013-05-04 17:05:00,70.0,57.2,29.98,NNW,338,2.0,2.3,64,0.00,CLR,SKC,0.00,WeatherDisplay:10.37,2013-05-04 15:05:00,
2013-05-04 17:10:00,69.8,56.6,29.98,NNE,22,1.6,1.6,63,0.00,CLR,SKC,0.00,WeatherDisplay:10.37,2013-05-04 15:10:00,
2013-05-04 17:15:00,69.8,57.1,29.98,WNW,292,4.0,4.0,64,0.00,CLR,SKC,0.00,WeatherDisplay:10.37,2013-05-04 15:15:00,
2013-05-04 17:20:00,69.6,56.9,29.98,NW,315,3.9,6.5,64,0.00,CLR,SKC,0.00,WeatherDisplay:10.37,2013-05-04 15:20:00,
2013-05-04 17:25:00,69.6,56.0,29.98,NW,315,0.0,0.0,62,0.00,CLR,SKC,0.00,WeatherDisplay:10.37,2013-05-04 15:25:00,
2013-05-04 17:30:00,69.4,56.3,29.98,WNW,292,3.4,3.5,63,0.00,CLR,SKC,0.00,WeatherDisplay:10.37,2013-05-04 15:30:00,
2013-05-04 17:35:00,69.3,56.1,29.98,North,0,0.0,3.5,63,0.00,CLR,SKC,0.00,WeatherDisplay:10.37,2013-05-04 15:35:00,
2013-05-04 17:40:00,69.1,56.0,29.98,NW,315,1.6,2.3,63,0.00,CLR,SKC,0.00,WeatherDisplay:10.37,2013-05-04 15:40:00,
2013-05-04 17:45:00,68.9,55.8,29.98,NNE,22,2.0,2.3,63,0.00,CLR,SKC,0.00,WeatherDisplay:10.37,2013-05-04 15:45:00,
2013-05-04 17:50:00,68.7,55.6,29.98,NW,315,5.0,5.8,63,0.00,CLR,SKC,0.00,WeatherDisplay:10.37,2013-05-04 15:50:00,
2013-05-04 17:55:00,68.7,56.0,29.98,North,0,2.7,6.9,64,0.00,CLR,SKC,0.00,WeatherDisplay:10.37,2013-05-04 15:55:00,
2013-05-04 18:00:00,68.7,56.5,29.99,NW,315,0.6,3.5,65,0.00,CLR,SKC,0.00,WeatherDisplay:10.37,2013-05-04 16:00:00,
2013-05-04 18:05:00,68.7,56.0,29.99,West,270,2.9,3.5,64,0.00,CLR,SKC,0.00,WeatherDisplay:10.37,2013-05-04 16:05:00,
2013-05-04 18:10:00,68.5,55.9,29.99,WNW,292,6.3,6.3,64,0.00,CLR,SKC,0.00,WeatherDisplay:10.37,2013-05-04 16:10:00,
2013-05-04 18:15:00,68.4,55.7,29.99,NW,305,5.0,6.0,64,0.00,CLR,SKC,0.00,WeatherDisplay:10.37,2013-05-04 16:15:00,
2013-05-04 18:20:00,68.2,55.5,29.99,North,0,0.0,6.9,64,0.00,CLR,SKC,0.00,WeatherDisplay:10.37,2013-05-04 16:20:00,
2013-05-04 18:25:00,68.2,55.5,29.99,WNW,292,5.0,10.4,64,0.00,CLR,SKC,0.00,WeatherDisplay:10.37,2013-05-04 16:25:00,
2013-05-04 18:30:00,68.0,55.4,29.99,NE,45,1.5,2.3,64,0.00,CLR,SKC,0.00,WeatherDisplay:10.37,2013-05-04 16:30:00,
2013-05-04 18:35:00,68.0,55.4,29.99,NNW,348,0.0,0.0,64,0.00,CLR,SKC,0.00,WeatherDisplay:10.37,2013-05-04 16:35:00,
2013-05-04 18:40:00,68.0,55.8,29.98,WNW,292,0.0,1.2,65,0.00,CLR,SKC,0.00,WeatherDisplay:10.37,2013-05-04 16:40:00,
2013-05-04 18:45:00,66.9,54.8,29.98,NNW,348,1.0,1.0,65,0.00,CLR,SKC,0.00,WeatherDisplay:10.37,2013-05-04 16:45:00,
2013-05-04 18:50:00,66.9,55.2,29.98,NW,315,1.0,2.5,66,0.00,CLR,SKC,0.00,WeatherDisplay:10.37,2013-05-04 16:50:00,
2013-05-04 18:55:00,66.4,54.7,29.99,NW,316,6.0,6.0,66,0.00,CLR,SKC,0.00,WeatherDisplay:10.37,2013-05-04 16:55:00,
2013-05-04 19:00:00,66.0,54.7,29.99,NW,308,3.0,4.0,67,0.00,CLR,SKC,0.00,WeatherDisplay:10.37,2013-05-04 17:00:00,
2013-05-04 19:05:00,66.0,54.7,29.99,North,352,0.0,2.0,67,0.00,CLR,SKC,0.00,WeatherDisplay:10.37,2013-05-04 17:05:00,
2013-05-04 19:10:00,65.8,54.9,29.99,NE,49,0.0,4.0,68,0.00,CLR,SKC,0.00,WeatherDisplay:10.37,2013-05-04 17:10:00,
2013-05-04 19:15:00,65.5,54.6,29.99,NNW,332,1.0,5.0,68,0.00,CLR,SKC,0.00,WeatherDisplay:10.37,2013-05-04 17:15:00,
2013-05-04 19:20:00,65.3,54.5,29.99,NNW,338,0.0,1.2,68,0.00,CLR,SKC,0.00,WeatherDisplay:10.37,2013-05-04 17:20:00,
2013-05-04 19:25:00,65.1,54.7,29.99,NNW,338,2.0,2.3,69,0.00,CLR,SKC,0.00,WeatherDisplay:10.37,2013-05-04 17:25:00,
2013-05-04 19:30:00,64.8,54.7,29.99,NW,313,2.0,3.0,70,0.00,CLR,SKC,0.00,WeatherDisplay:10.37,2013-05-04 17:30:00,
2013-05-04 19:35:00,64.6,54.6,29.99,WNW,295,2.0,3.0,70,0.00,CLR,SKC,0.00,WeatherDisplay:10.37,2013-05-04 17:35:00,
2013-05-04 19:40:00,64.2,54.6,29.99,NW,308,2.0,2.0,71,0.00,CLR,SKC,0.00,WeatherDisplay:10.37,2013-05-04 17:40:00,
2013-05-04 19:45:00,64.0,54.4,29.99,NW,315,0.0,0.0,71,0.00,CLR,SKC,0.00,WeatherDisplay:10.37,2013-05-04 17:45:00,
2013-05-04 19:50:00,63.5,54.3,29.99,NW,310,0.0,0.0,72,0.00,CLR,SKC,0.00,WeatherDisplay:10.37,2013-05-04 17:50:00,
2013-05-04 19:55:00,63.5,54.7,29.99,WNW,292,0.0,0.0,73,0.00,CLR,SKC,0.00,WeatherDisplay:10.37,2013-05-04 17:55:00,
2013-05-04 20:00:00,62.1,53.7,30.00,NW,315,0.0,0.0,74,0.00,CLR,SKC,0.00,WeatherDisplay:10.37,2013-05-04 18:00:00,
2013-05-04 20:05:00,61.5,53.9,30.00,NW,315,0.0,0.0,76,0.00,CLR,SKC,0.00,WeatherDisplay:10.37,2013-05-04 18:05:00,
2013-05-04 20:10:00,61.0,53.7,30.00,NW,315,0.0,0.0,77,0.00,CLR,SKC,0.00,WeatherDisplay:10.37,2013-05-04 18:10:00,
2013-05-04 20:15:00,60.6,53.4,30.00,NW,315,0.0,0.0,77,0.00,CLR,SKC,0.00,WeatherDisplay:10.37,2013-05-04 18:15:00,
2013-05-04 20:20:00,60.1,53.2,30.01,NW,315,0.0,0.0,78,0.00,CLR,SKC,0.00,WeatherDisplay:10.37,2013-05-04 18:20:00,
2013-05-04 20:25:00,59.7,53.2,30.00,NW,315,0.0,0.0,79,0.00,CLR,SKC,0.00,WeatherDisplay:10.37,2013-05-04 18:25:00,
2013-05-04 20:30:00,59.4,53.2,30.01,NW,315,0.0,0.0,80,0.00,CLR,SKC,0.00,WeatherDisplay:10.37,2013-05-04 18:30:00,
2013-05-04 20:35:00,59.2,53.0,30.01,West,270,0.0,0.0,80,0.00,CLR,SKC,0.00,WeatherDisplay:10.37,2013-05-04 18:35:00,
2013-05-04 20:40:00,59.7,53.5,30.01,WNW,292,4.0,4.0,80,0.00,CLR,SKC,0.00,WeatherDisplay:10.37,2013-05-04 18:40:00,
2013-05-04 20:45:00,60.6,54.1,30.01,NNW,338,0.0,0.0,79,0.00,CLR,SKC,0.00,WeatherDisplay:10.37,2013-05-04 18:45:00,
2013-05-04 20:50:00,61.5,54.2,30.01,NW,315,3.1,3.5,77,0.00,CLR,SKC,0.00,WeatherDisplay:10.37,2013-05-04 18:50:00,
2013-05-04 20:55:00,62.1,54.8,30.01,West,270,1.3,1.3,77,0.00,CLR,SKC,0.00,WeatherDisplay:10.37,2013-05-04 18:55:00,
2013-05-04 21:00:00,62.6,55.3,30.01,WNW,292,3.1,3.5,77,0.00,CLR,SKC,0.00,WeatherDisplay:10.37,2013-05-04 19:00:00,
2013-05-04 21:05:00,62.2,54.2,30.02,NW,315,1.9,4.6,75,0.00,CLR,SKC,0.00,WeatherDisplay:10.37,2013-05-04 19:05:00,
2013-05-04 21:10:00,62.1,54.0,30.01,WNW,292,3.1,3.5,75,0.00,CLR,SKC,0.00,WeatherDisplay:10.37,2013-05-04 19:10:00,
2013-05-04 21:15:00,61.7,54.1,30.02,WNW,292,1.9,3.5,76,0.00,CLR,SKC,0.00,WeatherDisplay:10.37,2013-05-04 19:15:00,
2013-05-04 21:20:00,61.5,53.9,30.02,WNW,292,1.1,1.2,76,0.00,CLR,SKC,0.00,WeatherDisplay:10.37,2013-05-04 19:20:00,
2013-05-04 21:25:00,61.3,53.7,30.02,WNW,292,2.2,2.3,76,0.00,CLR,SKC,0.00,WeatherDisplay:10.37,2013-05-04 19:25:00,
2013-05-04 21:30:00,61.3,54.1,30.02,WNW,292,4.0,4.0,77,0.00,CLR,SKC,0.00,WeatherDisplay:10.37,2013-05-04 19:30:00,
2013-05-04 21:35:00,61.3,53.7,30.02,West,270,1.5,2.5,76,0.00,CLR,SKC,0.00,WeatherDisplay:10.37,2013-05-04 19:35:00,
2013-05-04 21:37:00,61.3,53.7,30.02,West,270,2.5,2.5,76,0.00,CLR,SKC,0.00,WeatherDisplay:10.37,2013-05-04 19:37:00,
2013-05-04 21:42:00,61.3,53.7,30.03,West,270,1.1,1.2,76,0.00,CLR,SKC,0.00,WeatherDisplay:10.37,2013-05-04 19:42:00,
2013-05-04 21:47:00,61.3,53.7,30.02,NE,45,0.0,0.0,76,0.00,CLR,SKC,0.00,WeatherDisplay:10.37,2013-05-04 19:47:00,
2013-05-04 21:52:00,61.0,53.4,30.03,NE,45,0.0,0.0,76,0.00,CLR,SKC,0.00,WeatherDisplay:10.37,2013-05-04 19:52:00,
2013-05-04 21:57:00,60.6,53.4,30.03,WNW,292,0.0,0.0,77,0.00,CLR,SKC,0.00,WeatherDisplay:10.37,2013-05-04 19:57:00,
2013-05-04 22:02:00,59.5,52.7,30.03,NNW,338,0.0,0.0,78,0.00,CLR,SKC,0.00,WeatherDisplay:10.37,2013-05-04 20:02:00,
2013-05-04 22:07:00,59.4,52.8,30.02,ENE,68,0.0,0.0,79,0.00,CLR,SKC,0.00,WeatherDisplay:10.37,2013-05-04 20:07:00,
2013-05-04 22:12:00,58.8,52.7,30.02,North,0,0.0,0.0,80,0.00,CLR,SKC,0.00,WeatherDisplay:10.37,2013-05-04 20:12:00,
2013-05-04 22:17:00,58.3,52.5,30.03,NNW,338,0.0,0.0,81,0.00,CLR,SKC,0.00,WeatherDisplay:10.37,2013-05-04 20:17:00,
2013-05-04 22:22:00,58.1,52.3,30.03,NW,315,0.0,0.0,81,0.00,CLR,SKC,0.00,WeatherDisplay:10.37,2013-05-04 20:22:00,
2013-05-04 22:27:00,57.7,52.3,30.03,North,0,0.0,0.0,82,0.00,CLR,SKC,0.00,WeatherDisplay:10.37,2013-05-04 20:27:00,
2013-05-04 22:32:00,57.4,51.9,30.03,North,0,0.0,0.0,82,0.00,CLR,SKC,0.00,WeatherDisplay:10.37,2013-05-04 20:32:00,
2013-05-04 22:37:00,57.0,51.9,30.03,WNW,292,0.0,0.0,83,0.00,CLR,SKC,0.00,WeatherDisplay:10.37,2013-05-04 20:37:00,
2013-05-04 22:42:00,56.8,52.1,30.03,West,270,0.0,0.0,84,0.00,CLR,SKC,0.00,WeatherDisplay:10.37,2013-05-04 20:42:00,
2013-05-04 22:47:00,56.8,52.1,30.03,WNW,292,0.0,0.0,84,0.00,CLR,SKC,0.00,WeatherDisplay:10.37,2013-05-04 20:47:00,
2013-05-04 22:52:00,56.5,51.7,30.04,WNW,292,0.0,0.0,84,0.00,CLR,SKC,0.00,WeatherDisplay:10.37,2013-05-04 20:52:00,
2013-05-04 22:57:00,56.5,51.7,30.04,WNW,292,0.0,0.0,84,0.00,CLR,SKC,0.00,WeatherDisplay:10.37,2013-05-04 20:57:00,
2013-05-04 23:02:00,56.1,51.7,30.04,WNW,292,0.0,0.0,85,0.00,CLR,SKC,0.00,WeatherDisplay:10.37,2013-05-04 21:02:00,
2013-05-04 23:07:00,57.4,53.2,30.05,NW,315,0.6,0.0,86,0.00,CLR,SKC,0.00,WeatherDisplay:10.37,2013-05-04 21:07:00,
2013-05-04 23:12:00,57.9,53.4,30.04,NNW,338,0.0,3.5,85,0.00,CLR,SKC,0.00,WeatherDisplay:10.37,2013-05-04 21:12:00,
2013-05-04 23:17:00,58.1,53.3,30.04,NNE,22,0.5,2.0,84,0.00,CLR,SKC,0.00,WeatherDisplay:10.37,2013-05-04 21:17:00,
2013-05-04 23:22:00,58.1,53.3,30.04,WNW,292,0.0,0.0,84,0.00,CLR,SKC,0.00,WeatherDisplay:10.37,2013-05-04 21:22:00,
2013-05-04 23:27:00,57.9,53.1,30.04,WNW,292,0.0,0.0,84,0.00,CLR,SKC,0.00,WeatherDisplay:10.37,2013-05-04 21:27:00,
2013-05-04 23:32:00,57.7,52.9,30.04,West,276,0.0,0.0,84,0.00,CLR,SKC,0.00,WeatherDisplay:10.37,2013-05-04 21:32:00,
2013-05-04 23:37:00,57.0,52.2,30.04,WNW,285,1.0,5.0,84,0.00,CLR,SKC,0.00,WeatherDisplay:10.37,2013-05-04 21:37:00,
2013-05-04 23:42:00,57.0,52.6,30.04,West,270,0.0,0.0,85,0.00,CLR,SKC,0.00,WeatherDisplay:10.37,2013-05-04 21:42:00,
2013-05-04 23:47:00,57.9,53.1,30.04,West,270,1.3,3.1,84,0.00,CLR,SKC,0.00,WeatherDisplay:10.37,2013-05-04 21:47:00,
2013-05-04 23:52:00,58.5,53.3,30.04,West,270,3.8,3.8,83,0.00,CLR,SKC,0.00,WeatherDisplay:10.37,2013-05-04 21:52:00,
2013-05-04 23:57:00,58.8,53.7,30.04,WNW,292,1.1,3.6,83,0.00,CLR,SKC,0.00,WeatherDisplay:10.37,2013-05-04 21:57:00,